Regional Weather Roundup
Issued by NWS

Home | Current Version | Previous Version | Graphics & Text | Print | Product List | Glossary Off
Versions: 1 2 3 4 5 6 7 8 9 10 11 12 13 14 15 16 17 18 19 20 21 22 23 24 25 26 27 28 29 30 31 32 33 34 35 36 37 38 39 40 41 42 43 44 45 46 47 48 49 50

000
ASUS43 KMKX 281500
RWRWI

WISCONSIN REGIONAL WEATHER ROUNDUP
NATIONAL WEATHER SERVICE MILWAUKEE/SULLIVAN WI
1000 AM CDT WED JUN 28 2017

NOTE: "FAIR" INDICATES FEW OR NO CLOUDS BELOW 12,000 FEET WITH NO
SIGNIFICANT WEATHER AND/OR OBSTRUCTIONS TO VISIBILITY.

WIZ001-002-006>008-014>016-023>028-281600-
NORTHWEST WISCONSIN

CITY           SKY/WX    TMP DP  RH WIND       PRES   REMARKS
SUPERIOR ARPT  NOT AVBL
ASHLAND        CLOUDY    63  54  72 S5        29.71R
HAYWARD        CLOUDY    63  52  67 VRB7      29.71R
SIREN          RAIN      58  56  90 SE9       29.63F
CUMBERLAND     RAIN      59  55  88 SE8       29.68F
RICE LAKE      RAIN      59  56  88 E9        29.69F
CHETEK         LGT RAIN  59  56  91 SE6       29.70S
LADYSMITH      CLOUDY    63  54  73 SE9       29.75S
EAU CLAIRE     CLOUDY    63  61  93 S7        29.69S
MENOMONIE      DRIZZLE   64  63  94 SE7       29.68F
NEW RICHMOND   DRIZZLE   63  62  97 SE6       29.66R
OSCEOLA        CLOUDY    64  64 100 S13       29.67R
$$

WIZ003>005-009-010-017-018-281600-
NORTH CENTRAL WISCONSIN

CITY           SKY/WX    TMP DP  RH WIND       PRES   REMARKS
MANITOWISH WTR CLOUDY    59  55  85 S12       29.77F
ARBOR VITAE    CLOUDY    60  53  77 S14       29.78F
WOODRUFF       CLOUDY    60  53  77 S14       29.78F
RHINELANDER    LGT RAIN  57  55  93 S6        29.80F
EAGLE RIVER    LGT RAIN  56  55  95 S5        29.81F
LAND O LAKES   CLOUDY    62  53  70 S9        29.81F
PHILLIPS       CLOUDY    60  55  82 S9        29.75S
TOMAHAWK       NOT AVBL
MEDFORD        CLOUDY    58  54  84 SE9       29.75F
MERRILL        LGT RAIN  58  57  97 SE8       29.78F
$$

WIZ029-030-035-036-043>047-281600-
CENTRAL WISCONSIN

CITY           SKY/WX    TMP DP  RH WIND       PRES   REMARKS
WAUSAU         NOT AVBL
MOSINEE        CLOUDY    61  57  88 SE10      29.76F
MARSHFIELD     CLOUDY    61  56  83 S6        29.74F
STEVENS POINT  CLOUDY    58  56  95 SE8       29.80F
WAUPACA        CLOUDY    66  57  74 SE10G17   29.81F
WAUTOMA        LGT RAIN  61  57  87 SE12      29.78F
WISC RAPIDS    CLOUDY    62  58  86 S8        29.76F
CAMP DOUGLAS   CLOUDY    63  63 100 S10       29.73F
$$

WIZ011>013-019>022-031-037>040-048>050-281600-
NORTHEAST WISCONSIN

CITY           SKY/WX    TMP DP  RH WIND       PRES   REMARKS
ANTIGO         CLOUDY    57  53  84 S10G17    29.83F
SHAWANO        CLOUDY    64  55  72 S6        29.84S
OCONTO         CLOUDY    66  54  64 S9        29.84F
STURGEON BAY     N/A     63  52  67 S18       29.86F
GREEN BAY      CLOUDY    65  57  75 S10       29.87S
MANITOWOC      NOT AVBL
APPLETON       NOT AVBL
CLINTONVILLE   CLOUDY    63  54  72 S7        29.83F
OSHKOSH        CLOUDY    64  55  72 S15       29.83F
$$

WIZ032>034-041-042-053>061-281600-
SOUTHWEST WISCONSIN

CITY           SKY/WX    TMP DP  RH WIND       PRES   REMARKS
LA CROSSE      LGT RAIN  69  65  86 S15       29.72F
SPARTA         CLOUDY    64  62  92 SW10G18   29.75R
VIROQUA        CLOUDY    64  64 100 S14G21    29.78R
BOSCOBEL       LGT RAIN  66  63  90 S10G22    29.79F
PRAIRIE DU CHI LGT RAIN  65  64  96 SE8       29.78R
PLATTEVILLE    CLOUDY    63  63 100 SE18      29.83F
$$

WIZ056-057-062-063-064-067-068-281600-
SOUTH CENTRAL WISCONSIN

CITY           SKY/WX    TMP DP  RH WIND       PRES   REMARKS
REEDSBURG      CLOUDY    62  62 100 S15G21    29.77F
BARABOO/DELLS  CLOUDY    60  59  94 S13       29.79F
LONE ROCK      NOT AVBL
MINERAL POINT  CLOUDY    63  63 100 SE18G24   29.82F
MADISON        LGT RAIN  62  60  93 S15       29.83F
MIDDLETON      CLOUDY    63  62  97 S14       29.86F
WATERTOWN      CLOUDY    63  59  88 S14G23    29.91
MONROE         RAIN      61  59  94 S17G23    29.91F
JANESVILLE     RAIN      63  63 100 S12       29.93F
$$

WIZ051-052-058>065-066-070>072-281600-
SOUTHEAST WISCONSIN

CITY           SKY/WX    TMP DP  RH WIND       PRES   REMARKS
MILWAUKEE      LGT RAIN  67  55  65 S14       29.94F
WAUKESHA       RAIN      59  55  88 S9        29.96R
MILWAUKEE/TIMM CLOUDY    66  48  52 SW15G23   29.94F
RACINE         CLOUDY    67  53  61 S9        29.96F
KENOSHA        LGT RAIN  66  54  65 S14       29.96F
FOND DU LAC    CLOUDY    66  55  67 S17G25    29.86F
SHEBOYGAN      CLOUDY    64  55  72 S10       29.90F
WEST BEND      HVY RAIN  63  55  77 S15G28    29.92R
JUNEAU         CLOUDY    63  55  76 S14G21    29.90F
$$

LSZ147-162-281600-
LAKE SUPERIOR

STATION/POSITION TIME  TEMP    WIND        PRES    WAVE
                       AIR SEA DIR/SP/G            HT/PER
                 (UTC) (F)     (DEG/KT/KT) (MB)    (FT/S)
W MID LAKE BUOY  1350   48 39  110/  6/  6 1007.6F   1
DEVILS ISLAND    1400   54      60/  7/ 10 1006.5F
SAXON HARBOR     1440   65     180/  7/ 14 1005.4F
$$

LMZ867-665-643>646-281600-
LAKE MICHIGAN

STATION/POSITION TIME  TEMP    WIND        PRES    WAVE
                       AIR SEA DIR/SP/G            HT/PER
                 (UTC) (F)     (DEG/KT/KT) (MB)    (FT/S)
CHAMBERS ISLAND  1440   67     130/  5/ 14 1010.8F
S GREEN BAY BUOY 1430   67     170/ 17/ 21 1010.4F
N MID LAKE BUOY  1350   58 56  180/ 14/ 17 1014.3R   3/ 5
NORTHPORT PIER   1440   64     150/ 11/ 16 1011.9F
KEWAUNEE LAKESHO 1430   54     180/ 10/ 12 1011.9F
SHEBOYGAN LAKESH 1400   56     180/ 17/ 18 1012.9F
PORT WASHINGTON  1440   58     210/  9/ 13 1013.9F
ATWATER BUOY     1309   60 55  160/ 14/ 17 1014.1S
MILWAUKEE LAKESH 1430   66     190/ 14/ 19   N/A
S MID LAKE BUOY  1350   64 61  160/ 17/ 21 1015.8R   3/ 4
KENOSHA   LAKESH 1400   62     170/ 13/ 16 1014.6
$$

TC  - TEMPERATURE IN CELSIUS
VSB - VISIBILITY IN STATUTE MILES
WCI - WIND CHILL INDEX
HX  - HEAT INDEX





USA.gov is the U.S. government's official web portal to all federal, state and local government web resources and services.